Date String (YYYY-MM-DD hh:mm:ss) UTC,Instrument flags,Ambient pressure (hPa),Sample flow (lpm),Bypass flow (lpm),Sample temperature (°C),Ambient temperature (°C),ASC tube jacket temperature (°C),LED temperature (°C),Box temperature (°C),Sample RH (%),Span deviation,Mass concentration (μg/m³),Mass concentration (μg/m³),Mass concentration (μg/m³)
DateTimeUTC,F1_M11,P_M11,Q1_M11,Q2_M11,T1_M11,T2_M11,T3_M11,T4_M11,T5_M11,U1_M11,ZSPAN_M11,X0_M11,X2_M11,X1_M11
2022-10-17 22:00:00,,0831.0,5.00,0.00,30.5,29.1,00.0,39.2,32.3,11.8,0002.4,0013.65,0007.23,0006.53
2022-10-17 22:01:00,,0831.0,4.99,0.00,30.5,29.1,00.0,39.2,32.3,11.7,0001.8,0013.69,0007.24,0006.53
2022-10-17 22:02:00,,0831.0,5.00,0.00,30.5,29.1,00.0,39.2,32.3,11.7,0001.9,0013.08,0007.28,0006.56
2022-10-17 22:03:00,,0831.0,4.99,0.00,30.5,29.1,00.0,39.2,32.3,11.6,0002.6,0013.34,0007.30,0006.57
2022-10-17 22:04:00,,0831.0,5.01,0.00,30.5,29.1,00.0,39.2,32.3,11.7,0002.6,0013.73,0007.31,0006.55
2022-10-17 22:05:00,,0831.0,5.00,0.00,30.5,29.1,00.0,39.2,32.3,11.8,0002.7,0013.45,0007.27,0006.52
2022-10-17 22:06:00,,0831.0,5.01,0.00,30.5,29.1,00.0,39.2,32.3,11.7,0000.6,0012.95,0007.26,0006.52
2022-10-17 22:07:00,,0831.0,5.01,0.00,30.5,29.1,00.0,39.2,32.3,11.7,0000.0,0013.02,0007.28,0006.56
2022-10-17 22:08:00,,0831.0,5.01,0.00,30.5,29.2,00.0,39.2,32.3,11.7,0000.0,0012.87,0007.34,0006.61
2022-10-17 22:09:00,,0831.0,4.99,0.00,30.5,29.2,00.0,39.3,32.3,11.7,0000.0,0013.58,0007.46,0006.67
2022-10-17 22:10:00,,0831.0,4.99,0.00,30.5,29.2,00.0,39.3,32.3,11.7,0000.0,0014.13,0007.50,0006.71
2022-10-17 22:11:00,,0831.0,5.00,0.00,30.5,29.2,00.0,39.3,32.3,11.8,0000.4,0015.04,0007.51,0006.72
2022-10-17 22:12:00,,0831.0,5.01,0.00,30.5,29.3,00.0,39.3,32.3,11.7,0000.6,0015.31,0007.55,0006.75
2022-10-17 22:13:00,,0831.1,5.00,0.00,30.5,29.3,00.0,39.3,32.4,11.9,0002.9,0015.48,0007.58,0006.74
2022-10-17 22:14:00,,0831.0,5.00,0.00,30.6,29.4,00.0,39.3,32.4,11.9,0002.9,0015.63,0007.60,0006.74
2022-10-17 22:15:00,,0831.0,4.99,0.00,30.6,29.3,00.0,39.3,32.4,11.8,0003.9,0015.73,0007.60,0006.74
2022-10-17 22:16:00,,0831.0,5.00,0.00,30.6,29.3,00.0,39.3,32.4,11.8,0004.0,0017.43,0007.61,0006.75
2022-10-17 22:17:00,,0831.0,5.01,0.00,30.6,29.3,00.0,39.3,32.4,11.7,0004.2,0018.65,0007.64,0006.76
2022-10-17 22:18:00,,0831.1,5.00,0.00,30.6,29.3,00.0,39.3,32.4,11.7,0004.1,0020.23,0007.67,0006.75
2022-10-17 22:19:00,,0831.0,4.99,0.00,30.6,29.2,00.0,39.3,32.3,11.7,0004.2,0021.74,0007.64,0006.73
2022-10-17 22:20:00,,0831.0,5.00,0.00,30.6,29.2,00.0,39.3,32.4,11.7,0003.8,0021.34,0007.60,0006.71
2022-10-17 22:21:00,,0831.0,5.01,0.00,30.6,29.3,00.0,39.3,32.4,11.7,0003.7,0021.69,0007.59,0006.71
2022-10-17 22:22:00,,0831.0,5.01,0.00,30.6,29.3,00.0,39.3,32.4,11.7,0003.4,0021.46,0007.59,0006.71
2022-10-17 22:23:00,,0830.9,4.99,0.00,30.6,29.4,00.0,39.3,32.4,11.7,0003.4,0021.12,0007.56,0006.70
2022-10-17 22:24:00,,0831.0,4.99,0.00,30.6,29.4,00.0,39.4,32.4,11.7,0002.8,0022.29,0007.51,0006.69
2022-10-17 22:25:00,,0831.0,5.01,0.00,30.6,29.4,00.0,39.4,32.4,11.7,0003.0,0022.79,0007.53,0006.71
2022-10-17 22:26:00,,0831.0,5.01,0.00,30.6,29.4,00.0,39.4,32.4,11.7,0003.0,0022.77,0007.54,0006.74
2022-10-17 22:27:00,,0831.0,4.99,0.00,30.7,29.4,00.0,39.4,32.4,11.7,0003.4,0022.10,0007.57,0006.76
2022-10-17 22:28:00,,0830.9,4.99,0.00,30.7,28.5,00.0,39.4,32.4,11.7,0003.3,0021.40,0007.63,0006.79
2022-10-17 22:29:00,,0830.9,5.01,0.00,30.6,27.0,00.0,39.3,32.1,11.7,0003.4,0019.99,0007.66,0006.81
2022-10-17 22:30:00,,0830.9,4.99,0.00,30.5,26.6,00.0,39.2,32.1,11.8,0003.7,0018.85,0007.70,0006.82
2022-10-17 22:31:00,,0830.9,5.00,0.00,30.4,26.8,00.0,39.2,31.9,11.9,0003.8,0018.95,0007.73,0006.82
2022-10-17 22:32:00,,0830.9,5.01,0.00,30.3,27.2,00.0,39.1,31.8,12.0,0003.4,0019.03,0007.74,0006.81
2022-10-17 22:33:00,,0830.9,5.00,0.00,30.3,27.5,00.0,39.1,31.9,11.9,0003.3,0018.39,0007.78,0006.82
2022-10-17 22:34:00,,0830.9,4.99,0.00,30.2,27.8,00.0,39.1,31.9,12.0,0003.4,0018.56,0007.81,0006.81
2022-10-17 22:35:00,,0830.9,5.00,0.00,30.2,28.1,00.0,39.1,31.9,12.1,0003.8,0018.41,0007.83,0006.81
2022-10-17 22:36:00,,0830.9,5.00,0.00,30.2,28.3,00.0,39.0,31.9,12.0,0003.6,0017.32,0007.82,0006.81
2022-10-17 22:37:00,,0830.9,5.00,0.00,30.2,28.4,00.0,39.0,31.9,12.0,0003.5,0017.16,0007.86,0006.82
2022-10-17 22:38:00,,0830.9,5.00,0.00,30.2,28.5,00.0,39.0,31.9,12.0,0003.6,0016.47,0007.87,0006.85
2022-10-17 22:39:00,,0830.9,5.01,0.00,30.2,28.6,00.0,39.0,32.0,12.0,0003.6,0015.89,0007.85,0006.86
2022-10-17 22:40:00,,0830.9,5.00,0.00,30.2,28.7,00.0,39.0,32.0,12.0,0003.6,0015.47,0007.80,0006.86
2022-10-17 22:41:00,,0830.9,5.00,0.00,30.2,28.7,00.0,39.0,32.0,12.0,0003.0,0015.54,0007.81,0006.85
2022-10-17 22:42:00,,0830.9,5.00,0.00,30.2,28.8,00.0,39.0,32.0,12.0,0002.6,0015.40,0007.78,0006.87
2022-10-17 22:43:00,,0830.9,5.00,0.00,30.2,28.9,00.0,39.0,32.0,12.0,0002.5,0015.07,0007.83,0006.89
2022-10-17 22:44:00,,0830.9,5.00,0.00,30.2,28.9,00.0,39.0,32.0,12.0,0002.8,0015.12,0007.77,0006.87
2022-10-17 22:45:00,,0830.9,4.99,0.00,30.2,29.0,00.0,39.0,32.1,12.1,0002.9,0014.63,0007.74,0006.86
2022-10-17 22:46:00,,0830.9,5.00,0.00,30.3,29.0,00.0,39.0,32.1,12.1,0002.7,0013.98,0007.72,0006.84
2022-10-17 22:47:00,,0830.8,5.01,0.00,30.3,29.0,00.0,39.0,32.1,12.2,0002.5,0014.48,0007.71,0006.82
2022-10-17 22:48:00,,0830.8,5.00,0.00,30.3,29.0,00.0,39.0,32.1,12.0,0002.0,0014.14,0007.62,0006.77
2022-10-17 22:49:00,,0830.8,4.99,0.00,30.3,29.1,00.0,39.0,32.1,12.0,0001.3,0014.71,0007.58,0006.71
2022-10-17 22:50:00,,0830.9,4.99,0.00,30.3,29.1,00.0,39.0,32.1,12.0,0001.5,0015.43,0007.59,0006.66
2022-10-17 22:51:00,,0830.8,5.00,0.00,30.3,29.1,00.0,39.1,32.2,12.0,0001.5,0015.59,0007.61,0006.62
2022-10-17 22:52:00,,0830.9,5.01,0.00,30.4,29.2,00.0,39.1,32.2,12.0,0002.0,0015.61,0007.55,0006.58
2022-10-17 22:53:00,,0830.9,5.00,0.00,30.4,29.2,00.0,39.1,32.2,12.0,0001.9,0015.40,0007.52,0006.55
2022-10-17 22:54:00,,0831.0,4.98,0.00,30.4,29.2,00.0,39.1,32.2,11.9,0002.4,0015.57,0007.46,0006.51
2022-10-17 22:55:00,,0830.9,5.01,0.00,30.4,29.2,00.0,39.1,32.2,12.0,0002.9,0016.25,0007.48,0006.51
2022-10-17 22:56:00,,0830.9,5.01,0.00,30.4,29.2,00.0,39.1,32.2,12.0,0002.7,0017.41,0007.45,0006.49
2022-10-17 22:57:00,,0830.9,5.01,0.00,30.4,29.2,00.0,39.1,32.3,12.0,0002.8,0017.25,0007.42,0006.50
2022-10-17 22:58:00,,0830.9,4.99,0.00,30.5,29.2,00.0,39.2,32.3,11.9,0001.2,0017.71,0007.41,0006.50
2022-10-17 22:59:00,,0830.9,5.01,0.00,30.5,29.3,00.0,39.2,32.3,12.0,0000.0,0017.55,0007.38,0006.47
